• In Kazakhstan
  • List of Countries
  • For 7 days
  • Water Temperature
  • Satellite Maps
  • Weather Map
  • News
  • Weather Widgets
  • user-avatar
    Login

    Hourly Weather Magda

    Today, 20 April, Saturday

    Time Temperature Precipitation Wind Pressure Humidity
    00:00 +11°C° 0 mm 1 mps 754 mmHg 56%
    01:00 +10°C° 0 mm 2 mps 754 mmHg 55%
    02:00 +10°C° 0 mm 1 mps 754 mmHg 57%
    03:00 +10°C° 0 mm 1 mps 754 mmHg 59%
    04:00 +8°C° 0 mm 0 mps 754 mmHg 61%
    05:00 +10°C° 0 mm 1 mps 754 mmHg 60%
    06:00 +11°C° 0 mm 1 mps 754 mmHg 58%
    07:00 +13°C° 0 mm 1 mps 754 mmHg 54%
    08:00 +14°C° 0 mm 2 mps 754 mmHg 48%
    09:00 +16°C° 0 mm 2 mps 754 mmHg 41%
    10:00 +18°C° 0 mm 3 mps 754 mmHg 34%
    11:00 +19°C° 0 mm 3 mps 753 mmHg 32%
    12:00 +19°C° 0 mm 4 mps 753 mmHg 29%
    13:00 +21°C° 0 mm 4 mps 753 mmHg 27%
    14:00 +20°C° 0 mm 4 mps 752 mmHg 28%
    15:00 +20°C° 0 mm 4 mps 752 mmHg 29%
    16:00 +19°C° 0 mm 4 mps 752 mmHg 30%
    17:00 +18°C° 0 mm 3 mps 752 mmHg 35%
    18:00 +16°C° 0 mm 3 mps 751 mmHg 40%
    19:00 +14°C° 0 mm 2 mps 751 mmHg 46%
    20:00 +13°C° 0 mm 2 mps 751 mmHg 50%
    21:00 +12°C° 0 mm 2 mps 751 mmHg 53%
    22:00 +10°C° 0 mm 2 mps 751 mmHg 57%
    23:00 +9°C° 0 mm 2 mps 751 mmHg 60%

    Tomorrow, 21 April, Sunday

    Time Temperature Precipitation Wind Pressure Humidity
    00:00 +9°C° 0 mm 2 mps 751 mmHg 64%
    01:00 +8°C° 0 mm 2 mps 751 mmHg 67%
    02:00 +7°C° 0 mm 2 mps 751 mmHg 69%
    03:00 +7°C° 0 mm 2 mps 751 mmHg 71%
    04:00 +7°C° 0 mm 1 mps 751 mmHg 73%
    05:00 +7°C° 0 mm 2 mps 751 mmHg 69%
    06:00 +8°C° 0 mm 2 mps 751 mmHg 65%
    07:00 +9°C° 0 mm 2 mps 750 mmHg 61%
    08:00 +12°C° 0 mm 2 mps 750 mmHg 54%
    09:00 +13°C° 0 mm 3 mps 750 mmHg 47%
    10:00 +16°C° 0 mm 3 mps 750 mmHg 41%
    11:00 +17°C° 0 mm 3 mps 749 mmHg 38%
    12:00 +17°C° 0 mm 3 mps 749 mmHg 35%
    13:00 +18°C° 0 mm 3 mps 749 mmHg 32%
    14:00 +18°C° 0 mm 3 mps 748 mmHg 32%
    15:00 +18°C° 0 mm 3 mps 748 mmHg 33%
    16:00 +18°C° 0 mm 2 mps 747 mmHg 33%
    17:00 +16°C° 0 mm 2 mps 747 mmHg 39%
    18:00 +15°C° 0 mm 2 mps 747 mmHg 44%
    19:00 +13°C° 0 mm 1 mps 746 mmHg 50%
    20:00 +12°C° 0 mm 2 mps 746 mmHg 52%
    21:00 +12°C° 0 mm 2 mps 746 mmHg 54%
    22:00 +10°C° 0 mm 2 mps 746 mmHg 56%
    23:00 +9°C° 0 mm 2 mps 746 mmHg 61%

    Day after tomorrow, 22 April, Monday

    Time Temperature Precipitation Wind Pressure Humidity
    00:00 +8°C° 0 mm 2 mps 746 mmHg 65%
    01:00 +8°C° 0 mm 2 mps 746 mmHg 69%
    02:00 +7°C° 0 mm 2 mps 746 mmHg 75%
    03:00 +6°C° 0 mm 2 mps 745 mmHg 81%
    04:00 +5°C° 0 mm 3 mps 745 mmHg 87%
    05:00 +7°C° 0 mm 3 mps 745 mmHg 80%
    06:00 +7°C° 0 mm 3 mps 745 mmHg 74%
    07:00 +8°C° 0 mm 3 mps 745 mmHg 67%
    08:00 +10°C° 0 mm 3 mps 745 mmHg 60%
    09:00 +11°C° 0 mm 4 mps 745 mmHg 54%
    10:00 +13°C° 0 mm 4 mps 745 mmHg 48%
    11:00 +13°C° 0.1 mm 4 mps 745 mmHg 45%
    12:00 +14°C° 0.1 mm 5 mps 745 mmHg 42%
    13:00 +15°C° 0.1 mm 5 mps 745 mmHg 39%
    14:00 +15°C° 0 mm 6 mps 745 mmHg 40%
    15:00 +16°C° 0 mm 6 mps 744 mmHg 41%
    16:00 +16°C° 0 mm 7 mps 744 mmHg 42%
    17:00 +15°C° 0 mm 6 mps 744 mmHg 49%
    18:00 +14°C° 0 mm 6 mps 744 mmHg 56%
    19:00 +12°C° 0 mm 5 mps 744 mmHg 63%
    20:00 +11°C° 0 mm 6 mps 744 mmHg 63%
    21:00 +10°C° 0 mm 6 mps 744 mmHg 64%
    22:00 +9°C° 0 mm 6 mps 744 mmHg 64%
    23:00 +9°C° 0 mm 6 mps 744 mmHg 65%

    23 April, Tuesday

    Time Temperature Precipitation Wind Pressure Humidity
    00:00 +8°C° 0 mm 6 mps 743 mmHg 66%
    01:00 +8°C° 0 mm 6 mps 743 mmHg 67%
    02:00 +8°C° 0 mm 6 mps 743 mmHg 69%
    03:00 +8°C° 0 mm 6 mps 743 mmHg 70%
    04:00 +7°C° 0 mm 6 mps 742 mmHg 72%
    05:00 +8°C° 0 mm 6 mps 742 mmHg 72%
    06:00 +9°C° 0 mm 6 mps 742 mmHg 72%
    07:00 +9°C° 0 mm 6 mps 742 mmHg 73%
    08:00 +11°C° 0 mm 6 mps 742 mmHg 65%
    09:00 +14°C° 0 mm 7 mps 742 mmHg 58%
    10:00 +17°C° 0 mm 7 mps 742 mmHg 50%
    11:00 +17°C° 0.2 mm 7 mps 742 mmHg 50%
    12:00 +18°C° 0.2 mm 7 mps 742 mmHg 49%
    13:00 +18°C° 0.2 mm 7 mps 741 mmHg 48%
    14:00 +18°C° 0.3 mm 7 mps 741 mmHg 51%
    15:00 +17°C° 0.3 mm 7 mps 741 mmHg 54%
    16:00 +16°C° 0.3 mm 7 mps 741 mmHg 57%
    17:00 +15°C° 0.1 mm 6 mps 741 mmHg 62%
    18:00 +13°C° 0.1 mm 6 mps 741 mmHg 68%
    19:00 +11°C° 0.1 mm 6 mps 741 mmHg 74%
    20:00 +10°C° 0.2 mm 6 mps 740 mmHg 74%
    21:00 +10°C° 0.2 mm 5 mps 740 mmHg 75%
    22:00 +10°C° 0.2 mm 5 mps 740 mmHg 76%
    23:00 +10°C° 0 mm 5 mps 740 mmHg 75%

    24 April, Wednesday

    Time Temperature Precipitation Wind Pressure Humidity
    00:00 +10°C° 0 mm 5 mps 740 mmHg 74%
    01:00 +10°C° 0 mm 5 mps 740 mmHg 74%
    02:00 +10°C° 0 mm 5 mps 740 mmHg 75%
    03:00 +9°C° 0 mm 5 mps 740 mmHg 77%
    04:00 +9°C° 0 mm 5 mps 739 mmHg 78%
    05:00 +10°C° 0 mm 5 mps 740 mmHg 75%
    06:00 +11°C° 0 mm 6 mps 740 mmHg 71%
    07:00 +14°C° 0 mm 6 mps 740 mmHg 67%
    08:00 +16°C° 0 mm 6 mps 741 mmHg 63%
    09:00 +19°C° 0 mm 6 mps 741 mmHg 58%
    10:00 +20°C° 0 mm 7 mps 741 mmHg 54%
    11:00 +21°C° 0 mm 7 mps 741 mmHg 53%
    12:00 +21°C° 0 mm 7 mps 742 mmHg 52%
    13:00 +21°C° 0 mm 7 mps 742 mmHg 52%
    14:00 +21°C° 0 mm 6 mps 742 mmHg 54%
    15:00 +20°C° 0 mm 6 mps 742 mmHg 56%
    16:00 +20°C° 0 mm 6 mps 742 mmHg 58%
    17:00 +19°C° 0 mm 5 mps 742 mmHg 60%
    18:00 +18°C° 0 mm 4 mps 742 mmHg 63%
    19:00 +17°C° 0 mm 4 mps 743 mmHg 65%
    20:00 +17°C° 0 mm 4 mps 743 mmHg 66%
    21:00 +15°C° 0 mm 4 mps 743 mmHg 66%
    22:00 +15°C° 0 mm 4 mps 743 mmHg 67%
    23:00 +15°C° 0 mm 4 mps 743 mmHg 69%

    25 April, Thursday

    Time Temperature Precipitation Wind Pressure Humidity
    00:00 +14°C° 0 mm 4 mps 743 mmHg 72%
    01:00 +14°C° 0 mm 4 mps 742 mmHg 75%
    02:00 +13°C° 0 mm 4 mps 742 mmHg 77%
    03:00 +13°C° 0 mm 4 mps 742 mmHg 79%
    04:00 +13°C° 0 mm 4 mps 742 mmHg 81%
    05:00 +14°C° 0 mm 4 mps 743 mmHg 77%
    06:00 +15°C° 0 mm 4 mps 743 mmHg 73%
    07:00 +16°C° 0 mm 5 mps 743 mmHg 69%
    08:00 +17°C° 0 mm 5 mps 743 mmHg 66%
    09:00 +19°C° 0 mm 5 mps 743 mmHg 63%
    10:00 +20°C° 0 mm 5 mps 743 mmHg 59%
    11:00 +21°C° 0 mm 5 mps 743 mmHg 57%
    12:00 +22°C° 0 mm 5 mps 743 mmHg 54%
    13:00 +23°C° 0 mm 5 mps 743 mmHg 52%
    14:00 +23°C° 0 mm 5 mps 743 mmHg 53%
    15:00 +23°C° 0 mm 5 mps 743 mmHg 54%
    16:00 +23°C° 0 mm 5 mps 743 mmHg 55%
    17:00 +21°C° 0 mm 4 mps 742 mmHg 61%
    18:00 +20°C° 0 mm 3 mps 742 mmHg 67%
    19:00 +19°C° 0 mm 2 mps 742 mmHg 73%
    20:00 +18°C° 0 mm 3 mps 742 mmHg 73%
    21:00 +18°C° 0 mm 3 mps 742 mmHg 72%
    22:00 +18°C° 0 mm 3 mps 742 mmHg 72%
    23:00 +17°C° 0 mm 4 mps 741 mmHg 73%
    Show more